Regional Weather Roundup
Issued by NWS State College, PA

Home | Current Version | Previous Version | Text Only | Print | Product List | Glossary On
Versions: 1 2 3 4 5 6 7 8 9 10 11 12 13 14 15 16 17 18 19 20 21 22 23 24 25 26 27 28 29 30 31 32 33 34 35 36 37 38 39 40 41 42 43 44 45 46 47 48 49 50
706
ASUS41 KCTP 280310
RWRCTP

REGIONAL WEATHER ROUNDUP
NATIONAL WEATHER SERVICE STATE COLLEGE PA
1100 PM EDT MON MAR 27 2017

Note: "fair" indicates few or no clouds below 12,000 feet with no
significant weather and/or obstructions to visibility.

* = STATION THAT DOES NOT REPORT PRECIPITATION /E.G. RAIN...SNOW...ETC/
    THUNDER OR FOG.

PAZ002>004-007>009-013>016-020>023-029>032-280400-
WESTERN PENNSYLVANIA

CITY           SKY/WX    TMP DP  RH WIND       PRES   REMARKS
ERIE           CLOUDY    48  45  89 S3        29.92F
MEADVILLE      PTCLDY    49  45  86 NE8       29.91F
FRANKLIN*      PTCLDY    50  43  76 CALM      29.92F
NEW CASTLE     FAIR      53  47  79 CALM      29.91F
BEAVER COUNTY  NOT AVBL
BUTLER*        CLOUDY    52  46  82 NE5       29.91F
PITTSBURGH INT CLOUDY    58  50  75 CALM      29.89F
PITTSBURGH     PTCLDY    62  47  57 CALM      29.89F
INDIANA*       CLOUDY    54  50  87 SE5       29.94F
LATROBE        MOCLDY    55  50  82 MISG      29.91F
WASHINGTON CO* PTCLDY    52  48  87 CALM      29.92S
$$

PAZ004>006-010>012-017>019-024>028-033>037-041-042-045-046-049>053-280400-
CENTRAL PENNSYLVANIA

CITY           SKY/WX    TMP DP  RH WIND       PRES   REMARKS
BRADFORD       PTCLDY    46  44  93 CALM      29.93S
DUBOIS         PTCLDY    54  44  69 CALM      29.92S
CLEARFIELD       N/A    N/A N/A N/A MISG      29.93S
JOHNSTOWN      CLOUDY    57  49  74 S5        29.93F
ALTOONA        CLOUDY    60  49  66 S3        29.93F
STATE COLLEGE  PTCLDY    55  48  77 N5        29.92F
WILLIAMSPORT   PTCLDY    50  47  89 CALM      29.94S
SELINSGROVE    CLOUDY    49  48  97 CALM      29.95S
FT INDIANTOWN  PTCLDY    49  49 100 CALM      29.96S FOG
CAPITAL CITY   PTCLDY    53  48  83 E3        29.95S
HARRISBURG     CLOUDY    51  50  96 W3        29.94S
YORK           CLOUDY    49  49 100 CALM      29.93F FOG
$$

PAZ038>040-043-044-047-048-054-055-060>062-067>071-280400-
EASTERN PENNSYLVANIA

CITY           SKY/WX    TMP DP  RH WIND       PRES   REMARKS
SCRANTON       CLOUDY    50  46  86 E6        29.95F
MOUNT POCONO   CLOUDY    40  40 100 CALM      29.97S FOG
ALLENTOWN      CLOUDY    50  46  86 E3        29.98S FOG
QUAKERTOWN*    CLOUDY    48  48 100 CALM      29.98F
READING        PTCLDY    49  49 100 NW3       29.96F FOG
LANCASTER      PTCLDY    51  50  96 E5        29.95S
COATESVILLE    PTCLDY    54  52  94 E6        29.97F
POTTSTOWN      CLOUDY    48  46  93 NE3       29.98S FOG
BLUE BELL      CLOUDY    46  46 100 E3        29.97S
DOYLESTOWN     CLOUDY    47  47 100 CALM      29.97S FOG
WILLOW GROVE   NOT AVBL
NORTH PHILA    CLOUDY    50  49  96 NE3       29.99F FOG
PHILADELPHIA   CLOUDY    54  50  86 E6        29.97F FOG
$$




USA.gov is the U.S. government's official web portal to all federal, state and local government web resources and services.